Flag for Israel Weather past 2 weeks in Safed, Israel

Now
82 °F

Clear.


Feels Like: 85 °F
Forecast: 64 / 84 °F
Wind: 5 mph from Southeast

Location: Beirut Airport

Current Time: Sep 1, 2015 at 1:52:19 AM

Latest Report: Sep 1, 2015 at 12:00 AM


Visibility: N/A

Pressure: 29.89 "Hg (27.38 "Hg at 772m altitude)

Humidity: 58%

Dew point: 66 °F

Location of SafedLocation

Historic Weather in Safed — Graph

°F

Safed temperature yesterday

Maximum temperature yesterday: 88 °F (at 12:00 PM)
Minimum temperature yesterday: 81 °F (at 3:00 AM)
Average temperature yesterday: 84 °F

Past Weeks' High & Low Weather Summary

 TemperatureHumidityPressure
High91 °F (Aug 17, 12:00 AM)84% (Aug 18, 5:00 AM)29.92 "Hg (Aug 18, 5:00 AM)
Low79 °F (Aug 22, 5:00 AM)31% (Aug 17, 8:00 AM)29.74 "Hg (Aug 17, 5:00 AM)
Average84 °F62%29.83 "Hg
* Reported Midnight between Aug 16 and Aug 17 — Midnight between Aug 31 and Sep 1, Safed, Weather by CustomWeather, © 2015

Note: Actual official high and low records may vary slightly from our data, if they occured in-between our weather recording intervals... More about our weather records

Advertising

Safed weather history for previous 24 hours

 ConditionsComfort  
Time TempWeatherWind HumidityBarometerVisibility
12:00 AM
Tue, Sep 1
82 °FClear.5 mph58%29.89 "HgN/A
11:00 PM
Mon, Aug 31
82 °FClear.3 mph62%29.89 "HgN/A
10:00 PM82 °FClear.6 mph62%29.89 "HgN/A
9:00 PM84 °FClear.5 mph58%29.86 "HgN/A
8:00 PM84 °FSunny.7 mph55%29.86 "HgN/A
7:00 PM86 °FPassing clouds.9 mph52%29.86 "HgN/A
6:00 PM86 °FPassing clouds.9 mph59%29.86 "HgN/A
5:00 PM86 °FPassing clouds.10 mph52%29.86 "HgN/A
4:00 PM88 °FPassing clouds.10 mph52%29.86 "HgN/A
3:00 PM88 °FPassing clouds.10 mph52%29.89 "HgN/A
2:00 PM88 °FPassing clouds.10 mph59%29.89 "HgN/A
1:00 PM86 °FPassing clouds.8 mph59%29.89 "HgN/A
12:00 PM88 °FPassing clouds.7 mph52%29.89 "HgN/A
11:00 AM86 °FPassing clouds.8 mph55%29.89 "HgN/A
10:00 AM84 °FPassing clouds.6 mph58%29.89 "HgN/A
9:00 AM84 °FPassing clouds.5 mph55%29.86 "HgN/A
8:00 AM82 °FPassing clouds.3 mph55%29.86 "HgN/A
7:00 AM81 °FPassing clouds.7 mph54%29.86 "Hg5 mi
6:00 AM81 °FPassing clouds.6 mph51%29.86 "Hg5 mi
5:00 AM81 °FPassing clouds.3 mph54%29.83 "Hg5 mi
4:00 AM82 °FPassing clouds.2 mph55%29.83 "Hg5 mi
3:00 AM81 °FPassing clouds.5 mph58%29.83 "Hg5 mi
2:00 AM82 °FPassing clouds.5 mph58%29.83 "Hg5 mi
1:00 AM82 °FPassing clouds.6 mph58%29.86 "Hg5 mi
Weather by CustomWeather, © 2015

See weather overviewHow to use our weather pages